Location: ??????????
(48.4699°N, 37.9573°E)
Time: 13:37:07
(UTC+00:00)

Cosmos 2082 Rocket - Pass Details

Date: 20 January 2021
Orbit: 832 x 855 km, 71.0° (Epoch: 26 February)

Event Time Altitude Azimuth Distance (km) Brightness Sun altitude
Rises 17:51:21 0° 332° (NNW) 3,437 5.8 -36.5°
Reaches altitude 10° 17:53:49 10° 333° (NNW) 2,497 5.0 -36.9°
Enters shadow 17:55:34 21° 334° (NNW) 1,850 4.2 -37.2°
